Regional Weather Roundup
Issued by NWS

Home | Current Version | Previous Version | Graphics & Text | Print | Product List | Glossary Off
Versions: 1 2 3 4 5 6 7 8 9 10 11 12 13 14 15 16 17 18 19 20 21 22 23 24 25 26 27 28 29 30 31 32 33 34 35 36 37 38 39 40 41 42 43 44 45 46 47 48 49 50

000
ASUS43 KDMX 022207
RWRIA

WEATHER ROUNDUP FOR IOWA
NATIONAL WEATHER SERVICE DES MOINES IA
500 PM CDT THU JUL 02 2015

NOTE: "FAIR" INDICATES FEW OR NO CLOUDS BELOW 12,000 FEET WITH NO
SIGNIFICANT WEATHER AND/OR OBSTRUCTIONS TO VISIBILITY.

* - THESE STATIONS ARE NOT NWS STATIONS...THUS NOT UNDER NWS
QUALITY CONTROL.  THEY ALSO DO NOT REPORT WEATHER SUCH
AS PRECIPITATION OR FOG.

IAZ001>003-012>014-020>022-031>034-043>046-022300-
   NORTHWEST IOWA

CITY           SKY/WX    TMP DP  RH WIND       PRES   REMARKS
CARROLL *      MOSUNNY   66  59  77 SE12      29.99S
CHEROKEE *     CLOUDY    68  59  73 SE7       30.00R
DENISON *      PTSUNNY   68  61  77 E10       29.97S
LE MARS *      CLOUDY    70  59  68 VRB7G13   30.00S
ORANGE CITY *  SUNNY     68  57  68 SE5       30.00R
SHELDON *      MOSUNNY   70  61  73 CALM      29.99S
SIOUX CITY     CLOUDY    67  61  81 E10       29.98S
SPENCER        CLOUDY    71  49  45 SE7       30.01S
STORM LAKE *   SUNNY     68  57  68 SE7G13    30.01S
$$

IAZ055>058-069>071-079>083-090>094-022300-
   SOUTHWEST IOWA

CITY           SKY/WX    TMP DP  RH WIND       PRES   REMARKS
ATLANTIC *     PTSUNNY   70  61  73 E9        29.97R
AUDUBON *      SUNNY     66  61  82 E8        30.00S
CLARINDA *     CLOUDY    70  64  83 E9        29.97R
COUNCIL BLFS * CLOUDY    68  63  83 E9        29.97R
CRESTON *      PTSUNNY   70  61  73 E14       29.97F
HARLAN  *      CLOUDY    68  66  94 E12       30.01S
LAMONI         CLOUDY    69  62  78 VRB7      29.96F
RED OAK *      PTSUNNY   72  63  73 E10       29.95F
SHENANDOAH *   CLOUDY    70  64  83 E7        29.96R
$$

IAZ047>049-059>061-072>074-084-022300-
   CENTRAL IOWA

CITY           SKY/WX    TMP DP  RH WIND       PRES   REMARKS
AMES           CLOUDY    68  52  56 E7        29.99S
ANKENY *       MOSUNNY   68  55  64 CALM      29.99S
CHARITON *     SUNNY     68  54  60 E7        29.98S
DES MOINES     LGT RAIN  69  51  52 CALM      29.99R
GRINNELL*      CLOUDY    68  54  60 NE5       29.99F
KNOXVILLE *    SUNNY     70  50  49 E7        29.97S
MARSHALLTOWN   CLOUDY    69  55  60 SE6       29.98F
PELLA *        CLOUDY    70  57  64 CALM      29.99R
PERRY *          N/A     66  55  68 E5        29.99F
$$

IAZ004>006-015-016-023>025-035-036-022300-
   NORTH CENTRAL IOWA

CITY           SKY/WX    TMP DP  RH WIND       PRES   REMARKS
ALGONA *       SUNNY     70  52  52 SE7       30.01S
CLARION *      SUNNY     70  50  49 SE6       30.00S
ESTHERVILLE    PTSUNNY   70  52  52 E6        30.00F
FORT DODGE *   CLOUDY    68  52  56 E9        30.01S
MASON CITY     CLOUDY    74  54  49 SE9       30.02S
FOREST CITY *  SUNNY     72  54  53 E5        30.01S
IOWA FALLS *     N/A     70  54  56 SE5       30.01S
$$

IAZ007>011-017>019-026>030-037>042-050>054-066-022300-
   NORTHEAST IOWA

CITY           SKY/WX    TMP DP  RH WIND       PRES   REMARKS
CEDAR RAPIDS   CLOUDY    70  54  56 NE8       29.97F
CHARLES CITY * SUNNY     72  54  53 E8        30.00F
CLINTON *      PTSUNNY   70  54  56 NE8       30.01S
DECORAH *        N/A    N/A N/A N/A MISG        N/A
DUBUQUE        MOSUNNY   70  49  47 E9        29.99F
MONTICELLO *   SUNNY     70  54  56 E8        29.98F
OELWEIN *      SUNNY     72  55  56 NE7G14    30.00F
WATERLOO       CLOUDY    72  53  51 E9        29.98F
$$

IAZ064-065-067-068-078-022300-
   EAST CENTRAL IOWA

CITY           SKY/WX    TMP DP  RH WIND       PRES   REMARKS
DAVENPORT      CLOUDY    71  55  56 NE9       29.98R
IOWA CITY      CLOUDY    71  51  49 NE9       29.98F
MT. PLEASANT * CLOUDY    73  50  43 NE3       29.96S
MUSCATINE *    SUNNY     72  52  49 NE8       29.97S
QUAD CITIES    CLOUDY    71  56  58 E9        29.97R
$$

IAZ062-063-075>077-085>089-095>099-022300-
   SOUTHEAST IOWA

CITY           SKY/WX    TMP DP  RH WIND       PRES   REMARKS
BURLINGTON     CLOUDY    71  56  58 E6        29.95F
FAIRFIELD *    SUNNY     70  52  52 E7        29.97S
FORT MADISON * SUNNY     70  61  73 NE3       29.96S
KEOKUK *       SUNNY     70  61  73 CALM      29.95S
OSKALOOSA *      N/A     70  52  52 E5        29.98S
CENTERVILLE *  MOSUNNY   66  55  68 NE5       29.99S
OTTUMWA        CLOUDY    70  53  54 NE7       29.96S
WASHINGTON *   SUNNY     70  52  52 E8        29.98S
$$

ABBREVIATIONS USED IN REMARKS
   TC - TEMPERATURES IN CELSIUS
  WCI - WIND CHILL INDEX
   HX - HEAT INDEX
  VSB - VISIBILITY
$$




USA.gov is the U.S. government's official web portal to all federal, state and local government web resources and services.